Wind_Speed
13 13 12 12 12 12 10 8 7 6 5 4 3 3 3 3 2 1 1 1 2 3 4 4 5 4 4 3 3 3 4 5 4 4 3 3 3 3 3 3 2 2 2 2 2 2 2 2 2
13 11 11 13 14 11 9 7 7 7 6 5 5 4 3 3 2 2 1 1 2 4 4 4 5 5 4 3 3 4 4 4 4 4 3 3 2 2 3 2 2 2 2 1 1 0 0 1 2
12 12 13 14 12 10 9 8 8 7 6 5 5 5 4 3 3 2 1 1 3 3 4 4 5 5 4 4 3 4 4 4 4 4 3 3 3 3 3 2 2 2 1 1 1 1 1 1 1
12 13 14 13 10 10 9 9 8 7 6 6 6 6 5 4 3 2 1 1 3 3 3 4 4 4 4 3 3 3 3 3 3 3 3 3 3 4 3 2 2 2 2 2 2 2 2 2 2
12 14 14 12 10 9 9 9 8 8 7 7 6 6 5 5 3 2 2 2 3 3 3 3 3 3 3 3 3 3 4 3 3 3 4 4 4 4 3 3 3 3 3 3 3 3 4 5 4
12 13 13 11 10 9 8 9 9 8 8 7 7 7 6 5 4 3 2 2 2 2 3 3 3 2 2 3 3 3 3 3 3 3 4 4 3 4 4 4 3 3 3 3 4 3 4 4 4
13 14 11 9 9 8 8 8 9 9 9 8 8 7 6 6 5 4 3 2 2 2 2 2 2 1 1 2 2 3 3 2 2 3 3 3 3 3 3 4 3 3 3 4 5 5 5 4 4
13 12 10 9 9 9 8 8 9 9 9 9 8 8 7 6 6 5 4 3 2 2 2 1 1 1 1 1 2 1 2 2 2 2 2 2 2 2 3 3 3 3 4 4 4 5 5 4 3
10 10 9 8 8 8 8 9 9 10 9 9 9 8 8 7 7 6 6 4 3 2 2 1 1 1 1 1 1 1 1 2 2 2 1 1 1 2 3 3 3 4 4 4 4 4 5 4 3
8 8 6 6 8 8 7 8 9 9 8 8 9 9 9 8 8 7 6 5 3 2 2 1 1 1 1 1 1 1 1 1 2 2 1 1 2 2 2 3 3 4 4 4 4 4 4 4 4
6 5 6 7 8 8 7 8 8 8 8 8 8 9 9 9 8 8 7 6 5 4 3 2 0 1 0 0 0 0 0 2 2 1 1 1 2 2 2 2 3 3 3 3 3 3 4 4 4
4 5 5 6 7 7 7 8 8 7 7 8 8 9 9 9 9 9 8 7 5 5 4 3 2 1 0 0 0 0 0 1 2 2 1 1 1 2 2 2 2 2 3 3 3 3 3 4 4
3 4 5 6 7 8 8 8 8 8 8 8 8 8 9 9 10 9 9 8 7 5 5 4 3 3 2 1 1 1 1 2 2 2 0 0 0 1 1 1 1 1 2 3 3 3 4 4 5
2 1 3 6 7 7 8 8 8 8 8 9 9 9 9 9 9 9 9 8 8 7 5 4 4 3 3 2 1 1 1 1 1 0 0 1 1 1 2 2 1 1 2 3 3 3 4 4 5
1 1 2 5 6 7 7 8 8 8 8 8 9 8 8 9 9 10 9 8 8 7 6 5 5 4 3 3 2 2 2 2 1 1 1 1 1 2 2 2 2 2 2 3 3 3 4 4 4
1 2 2 3 5 6 6 7 8 8 8 9 8 9 8 8 9 10 10 9 8 8 6 5 5 5 4 3 2 2 2 2 2 1 1 1 2 2 2 2 2 2 3 3 3 3 4 5 5
4 4 3 3 3 5 6 7 7 7 7 7 7 8 8 8 9 10 10 9 8 8 7 6 5 5 4 3 3 2 2 2 2 2 2 1 2 2 2 2 2 3 3 3 3 3 4 4 5
7 5 4 4 4 6 6 6 5 6 6 7 7 7 8 9 8 9 9 8 8 8 7 6 5 5 5 4 4 3 3 2 2 2 2 2 2 3 3 3 3 3 3 3 3 3 4 5 5
8 6 5 4 5 6 6 5 5 5 6 7 7 7 7 8 8 8 8 8 8 8 7 6 5 5 5 5 5 4 3 3 3 2 2 2 3 3 3 3 3 3 3 3 4 4 4 5 6
8 8 8 6 6 6 6 6 6 6 6 7 8 7 7 6 7 7 8 7 8 8 7 6 6 5 5 5 5 4 3 3 3 3 3 3 3 3 3 3 3 3 4 4 5 5 5 6 7
9 9 9 7 7 7 7 7 7 7 8 8 8 8 8 7 6 6 7 7 7 7 7 6 6 7 6 6 6 5 4 3 4 4 4 3 4 4 4 5 5 5 6 7 7 7 7 7 8
11 9 8 8 8 7 7 8 7 8 7 8 8 7 9 8 7 7 7 7 7 6 7 7 7 7 7 7 6 6 5 5 5 4 4 4 4 5 6 7 7 7 7 8 8 8 8 8 9
11 10 9 9 8 8 9 11 10 9 8 7 7 8 9 9 7 7 7 7 7 6 7 7 8 8 8 7 6 6 6 6 6 6 6 5 5 7 7 8 8 9 9 9 10 10 10 10 11
11 10 10 11 11 10 9 11 12 11 9 7 7 9 10 10 8 8 7 7 7 7 7 8 8 8 8 7 7 7 7 8 8 8 7 7 8 8 8 9 9 9 10 11 11 11 11 12 12
12 11 11 10 11 10 9 11 14 12 10 9 9 10 11 11 11 9 8 8 8 8 8 8 8 8 8 9 9 9 9 9 9 9 9 9 9 9 9 9 10 11 11 12 12 12 13 13 14
13 12 11 11 11 11 11 12 11 11 12 10 10 11 11 11 11 11 10 9 9 9 9 9 9 9 9 10 10 10 10 11 11 10 10 10 10 10 10 11 12 12 13 13 14 14 15 15 16
13 13 12 12 13 13 13 12 12 12 13 13 12 13 13 11 11 11 11 10 10 10 10 10 10 10 10 10 11 11 11 11 11 11 12 12 12 12 12 13 13 14 15 15 16 16 17 17 18
15 13 13 13 15 13 13 11 11 10 11 14 14 14 14 12 12 12 11 11 12 12 12 12 11 11 11 12 12 12 13 12 12 13 13 13 14 14 14 15 16 17 17 18 18 18 19 19 19
15 13 14 14 14 13 13 13 13 12 13 13 13 14 14 15 13 13 12 12 12 12 13 14 13 12 13 13 14 14 14 14 14 15 15 15 16 16 17 17 18 19 19 19 20 20 21 21 21
16 15 14 15 16 16 16 16 15 14 12 12 13 14 16 15 15 13 13 13 14 14 15 15 15 15 15 15 15 16 16 17 17 17 17 18 18 19 19 19 20 21 21 21 22 22 22 22 23
Wind_Direction
74 73 72 70 64 61 58 43 36 37 26 21 18 19 13 12 18 41 65 102 121 128 125 126 129 124 122 120 122 132 140 135 126 118 116 118 126 135 138 152 164 157 155 154 173 191 184 185 186
73 72 72 65 55 49 46 41 32 32 26 20 19 18 20 16 20 27 47 93 119 124 127 132 131 130 128 122 119 122 122 121 113 108 110 112 122 133 130 153 166 142 136 152 154 184 223 179 179
74 70 69 61 49 44 39 35 32 27 25 18 17 18 23 17 14 25 58 133 128 132 136 139 137 134 132 124 124 125 123 114 105 107 104 101 100 108 119 135 135 116 81 33 57 54 88 87 134
72 69 65 59 46 43 39 32 29 21 20 18 14 12 18 14 15 26 45 128 137 140 147 149 140 136 134 129 130 132 128 119 112 105 97 98 102 110 124 129 121 97 68 54 40 59 72 81 93
70 69 60 55 43 41 36 32 25 21 16 18 14 12 11 12 21 29 66 110 123 133 145 141 143 137 136 128 126 121 117 116 114 104 100 98 108 120 114 106 108 85 73 72 68 64 70 67 70
70 65 59 52 41 36 34 33 27 20 16 17 14 16 18 23 29 31 43 79 103 116 148 140 115 106 132 150 137 125 120 119 122 119 121 118 121 96 94 88 87 88 84 70 70 69 64 77 77
66 65 58 39 33 33 33 31 29 23 16 18 17 19 26 26 27 31 44 67 80 86 132 127 103 97 120 148 138 133 134 134 126 111 105 96 87 87 85 75 73 80 76 72 69 67 61 68 78
60 57 55 41 34 30 33 27 27 25 24 25 25 27 30 28 27 30 37 49 69 89 96 112 124 107 100 111 114 121 141 137 137 131 122 102 93 85 72 65 63 68 65 66 66 66 61 61 76
61 56 49 38 38 34 32 26 25 26 27 25 30 32 31 32 30 31 42 47 55 74 94 136 155 130 97 105 82 109 136 137 141 131 116 103 92 79 65 60 54 74 75 69 66 63 54 57 73
65 57 45 35 36 33 30 26 26 29 26 26 31 31 32 31 31 34 38 37 38 46 62 133 173 158 122 90 72 93 161 166 155 130 105 84 77 68 64 53 56 72 74 73 64 59 57 64 55
67 64 45 42 37 32 27 27 28 33 31 26 25 28 31 31 34 32 34 29 28 35 31 40 86 163 129 317 16 108 199 178 173 149 131 89 74 72 70 57 49 54 58 58 52 55 48 41 28
55 56 45 41 37 29 27 30 26 29 26 24 23 24 27 29 30 28 27 29 29 39 36 31 41 59 48 321 289 285 253 181 178 182 156 102 72 64 49 41 48 45 40 43 49 42 34 25 22
71 51 33 24 29 27 28 27 23 26 20 24 22 22 26 25 26 29 29 28 23 26 28 28 28 20 354 308 253 260 250 168 162 192 209 54 66 19 358 5 10 38 38 38 42 32 22 20 17
96 71 30 19 17 19 22 19 23 23 17 23 22 23 25 24 26 27 28 28 21 22 25 19 13 6 0 9 16 86 106 97 111 118 9 22 24 2 351 358 13 23 25 25 30 21 6 6 3
138 278 353 4 1 359 8 9 14 14 11 16 17 19 20 24 26 23 24 22 21 17 17 16 15 24 27 34 48 68 71 75 75 53 21 18 25 17 15 8 8 5 4 3 1 2 1 354 354
217 292 306 329 345 341 353 2 6 9 8 12 16 20 20 23 24 20 19 21 21 21 17 14 8 17 21 29 42 52 46 43 42 38 12 23 21 13 17 15 6 1 357 357 353 347 343 350 348
230 245 263 289 314 329 334 345 353 359 2 5 10 18 18 19 21 18 18 22 22 24 22 15 18 16 18 20 16 16 7 4 359 6 4 360 355 351 356 358 347 346 346 342 345 338 338 335 333
242 243 258 281 295 302 313 321 336 352 348 350 359 6 8 5 10 12 15 18 19 20 24 29 27 21 19 18 6 5 4 2 344 347 347 347 341 337 334 339 333 323 322 325 327 326 326 330 333
249 253 245 250 289 291 296 307 320 338 336 338 344 348 354 358 2 5 11 13 14 14 21 27 26 26 22 13 2 1 358 0 347 328 324 327 326 332 330 333 346 342 324 315 321 322 326 326 327
250 249 237 237 262 275 287 298 310 315 319 319 327 330 335 347 357 360 2 6 10 10 12 18 20 18 14 0 355 354 342 336 340 333 319 320 321 321 325 319 328 333 331 327 323 316 316 318 316
241 248 249 248 257 271 281 290 301 298 301 305 312 319 321 336 344 349 350 355 358 2 4 8 12 14 5 353 347 346 344 339 332 323 314 318 321 314 318 308 305 309 317 319 320 320 319 317 314
237 237 249 247 249 253 267 275 280 282 286 296 304 308 312 319 331 336 339 346 346 351 355 358 359 357 356 353 349 346 345 338 335 332 323 317 310 309 311 310 303 299 306 311 312 312 314 313 313
240 238 241 246 252 248 261 260 260 269 288 298 307 309 308 310 320 326 328 332 331 337 343 346 349 347 346 349 347 344 343 335 331 325 318 311 305 304 308 308 305 302 303 307 309 308 308 307 307
236 243 250 249 256 252 250 266 269 277 283 287 291 300 306 307 313 317 315 318 321 328 329 331 334 335 336 338 337 335 331 328 324 322 319 311 308 304 305 306 304 304 305 307 308 307 307 305 305
236 238 249 253 258 260 258 262 271 279 286 281 277 287 296 301 304 305 304 307 313 317 321 320 320 325 327 329 327 325 324 321 319 316 313 311 308 302 302 302 303 303 304 305 306 305 305 304 302
239 240 242 254 257 248 250 251 265 279 282 276 279 282 287 288 294 299 299 298 304 308 312 313 313 314 315 318 320 320 318 315 313 312 310 310 308 304 300 300 301 303 303 303 302 300 301 302 304
231 235 239 251 256 259 254 248 259 272 282 285 282 282 280 282 286 291 290 290 294 299 304 306 306 307 308 311 314 316 316 313 313 311 309 308 305 302 301 300 300 301 301 301 301 299 298 298 301
234 235 239 236 245 252 265 262 267 266 280 281 278 278 279 278 278 281 285 286 289 295 300 302 299 299 303 307 308 310 313 313 310 304 302 302 302 301 300 299 299 300 299 298 300 299 297 298 297
238 234 240 247 255 259 266 271 273 269 268 272 276 275 273 276 276 281 278 284 287 290 299 298 295 298 302 302 303 305 309 308 305 302 300 300 299 298 298 298 298 298 298 298 298 299 299 298 296
238 232 238 247 254 258 262 266 274 273 267 269 271 275 276 273 276 276 277 283 283 288 294 298 298 299 302 302 302 302 303 303 301 300 299 298 297 297 296 297 298 298 298 297 297 297 297 297 295
Height
5885 5885 5885 5885 5885 5884 5884 5884 5884 5883 5882 5881 5881 5880 5879 5879 5879 5881 5878 5876 5877 5877 5877 5877 5878 5878 5879 5879 5879 5879 5879 5880 5880 5880 5881 5881 5881 5881 5882 5882 5882 5882 5882 5882 5881 5881 5881 5881 5882
5888 5888 5887 5886 5886 5886 5886 5886 5885 5884 5883 5882 5882 5881 5880 5879 5879 5879 5878 5878 5878 5878 5878 5878 5879 5879 5879 5880 5880 5880 5880 5881 5881 5881 5881 5882 5882 5882 5882 5882 5882 5882 5882 5882 5882 5882 5881 5881 5881
5890 5889 5888 5888 5889 5889 5889 5888 5887 5885 5885 5884 5883 5882 5882 5881 5880 5879 5879 5879 5879 5879 5879 5879 5879 5880 5880 5880 5881 5881 5881 5882 5882 5882 5882 5882 5883 5882 5883 5883 5883 5883 5883 5883 5882 5882 5881 5881 5881
5891 5890 5890 5891 5891 5891 5890 5889 5888 5887 5886 5885 5884 5884 5882 5882 5881 5880 5879 5879 5880 5880 5880 5880 5880 5881 5881 5881 5882 5882 5882 5882 5883 5883 5883 5883 5883 5883 5883 5883 5884 5884 5884 5884 5883 5882 5881 5881 5880
5892 5892 5892 5893 5893 5893 5892 5891 5890 5889 5887 5886 5886 5884 5883 5882 5881 5881 5880 5880 5880 5880 5881 5881 5881 5881 5882 5882 5882 5883 5883 5883 5884 5884 5884 5884 5885 5884 5885 5884 5884 5885 5885 5884 5884 5883 5881 5882 5882
5894 5892 5894 5895 5895 5895 5894 5893 5892 5891 5889 5888 5887 5886 5885 5884 5883 5882 5881 5881 5881 5881 5881 5881 5881 5882 5882 5883 5883 5883 5884 5884 5885 5884 5885 5885 5886 5886 5885 5885 5886 5886 5885 5885 5884 5884 5883 5883 5883
5896 5895 5897 5898 5897 5897 5896 5895 5894 5893 5891 5890 5888 5887 5886 5885 5884 5883 5882 5882 5882 5882 5882 5883 5883 5883 5883 5884 5884 5884 5885 5885 5885 5886 5886 5886 5886 5886 5887 5887 5886 5886 5886 5886 5886 5885 5885 5884 5884
5898 5900 5899 5900 5900 5899 5898 5897 5896 5894 5893 5891 5890 5888 5887 5886 5885 5884 5883 5883 5883 5883 5883 5883 5884 5884 5884 5884 5885 5885 5885 5886 5886 5886 5887 5887 5887 5887 5888 5888 5887 5887 5887 5887 5886 5886 5886 5885 5885
5902 5903 5902 5902 5902 5901 5900 5898 5897 5896 5894 5893 5892 5890 5889 5888 5887 5886 5885 5884 5884 5884 5884 5884 5884 5885 5885 5885 5885 5886 5886 5886 5887 5887 5888 5888 5888 5888 5888 5888 5888 5888 5887 5887 5887 5887 5886 5886 5885
5904 5905 5905 5905 5904 5903 5901 5900 5899 5897 5896 5894 5893 5892 5891 5889 5888 5887 5886 5885 5885 5885 5884 5885 5885 5885 5886 5886 5886 5886 5887 5887 5887 5888 5888 5889 5889 5889 5889 5889 5888 5888 5888 5888 5888 5887 5887 5886 5886
5906 5907 5907 5906 5905 5904 5903 5902 5901 5900 5898 5897 5895 5894 5892 5891 5890 5889 5888 5887 5886 5886 5885 5885 5885 5886 5886 5886 5887 5887 5887 5887 5887 5888 5889 5889 5889 5889 5889 5889 5889 5889 5888 5888 5888 5888 5887 5887 5886
5908 5908 5908 5907 5907 5906 5904 5903 5902 5901 5900 5898 5897 5895 5894 5893 5891 5890 5889 5889 5888 5887 5887 5886 5886 5886 5887 5887 5887 5888 5888 5888 5888 5889 5889 5889 5890 5890 5890 5890 5890 5890 5889 5889 5888 5888 5888 5887 5886
5909 5909 5909 5908 5908 5907 5906 5905 5903 5902 5901 5899 5898 5897 5896 5894 5893 5892 5891 5890 5889 5888 5888 5888 5887 5887 5887 5887 5887 5887 5888 5889 5889 5889 5889 5889 5890 5890 5890 5890 5890 5890 5890 5889 5889 5889 5888 5887 5886
5909 5909 5909 5909 5909 5908 5907 5905 5904 5903 5902 5901 5900 5898 5897 5896 5895 5893 5892 5891 5891 5890 5889 5889 5888 5888 5888 5888 5887 5887 5888 5888 5889 5889 5890 5890 5890 5890 5890 5890 5890 5890 5890 5889 5889 5889 5888 5888 5887
5909 5908 5909 5909 5909 5909 5908 5907 5905 5904 5903 5902 5901 5900 5899 5897 5896 5895 5894 5893 5892 5891 5890 5890 5889 5889 5888 5888 5888 5888 5888 5889 5889 5889 5890 5890 5890 5890 5891 5891 5890 5890 5890 5890 5889 5889 5889 5888 5887
5909 5908 5910 5910 5910 5909 5910 5908 5907 5905 5904 5903 5902 5901 5900 5899 5897 5896 5895 5894 5893 5892 5892 5891 5890 5890 5889 5889 5889 5889 5889 5889 5890 5890 5890 5890 5890 5891 5891 5891 5891 5890 5890 5890 5890 5889 5889 5888 5888
5908 5909 5910 5910 5910 5910 5909 5908 5907 5906 5905 5904 5903 5902 5901 5900 5898 5898 5896 5895 5894 5893 5892 5892 5891 5891 5890 5890 5890 5890 5890 5890 5890 5890 5890 5890 5890 5890 5890 5890 5890 5890 5890 5890 5890 5889 5889 5888 5888
5907 5907 5909 5909 5910 5910 5909 5908 5908 5907 5906 5905 5904 5903 5902 5901 5900 5899 5898 5896 5895 5894 5893 5892 5892 5891 5891 5891 5891 5891 5891 5890 5890 5890 5890 5890 5890 5890 5890 5890 5890 5890 5890 5889 5889 5889 5888 5888 5887
5906 5907 5908 5909 5910 5910 5909 5908 5908 5907 5906 5905 5904 5903 5903 5902 5901 5900 5899 5898 5896 5895 5894 5894 5893 5893 5892 5892 5892 5891 5891 5891 5891 5890 5890 5890 5890 5890 5890 5890 5890 5889 5889 5889 5889 5888 5888 5888 5887
5906 5906 5907 5908 5908 5908 5908 5908 5907 5907 5906 5906 5904 5903 5902 5901 5901 5900 5899 5898 5897 5897 5896 5895 5894 5894 5893 5893 5892 5891 5891 5891 5890 5890 5890 5890 5890 5890 5890 5890 5890 5889 5889 5889 5888 5888 5887 5886 5886
5905 5906 5906 5906 5907 5907 5907 5907 5906 5906 5905 5905 5904 5903 5902 5901 5901 5900 5900 5899 5898 5897 5896 5896 5895 5894 5894 5893 5892 5891 5891 5891 5890 5890 5890 5890 5890 5890 5889 5889 5889 5889 5889 5888 5887 5887 5886 5885 5885
5903 5904 5905 5904 5905 5906 5907 5906 5906 5904 5904 5903 5903 5902 5901 5901 5900 5900 5899 5899 5898 5897 5896 5896 5895 5894 5894 5893 5892 5891 5891 5890 5890 5890 5889 5889 5889 5889 5889 5889 5888 5888 5887 5887 5886 5885 5885 5884 5883
5902 5902 5903 5903 5903 5904 5905 5904 5904 5902 5902 5901 5902 5902 5901 5900 5900 5899 5899 5898 5898 5897 5896 5896 5895 5894 5894 5893 5892 5891 5891 5890 5889 5889 5888 5888 5888 5888 5887 5887 5887 5886 5886 5885 5884 5884 5883 5882 5881
5900 5900 5901 5901 5902 5902 5903 5903 5901 5900 5900 5901 5900 5901 5900 5899 5898 5898 5898 5897 5897 5896 5896 5895 5895 5894 5893 5892 5892 5891 5890 5890 5889 5888 5887 5887 5886 5886 5886 5885 5885 5884 5884 5883 5882 5881 5880 5879 5878
5898 5899 5900 5900 5900 5901 5901 5901 5901 5899 5900 5900 5900 5899 5899 5898 5897 5897 5897 5896 5896 5895 5895 5894 5894 5893 5892 5892 5891 5890 5889 5889 5888 5887 5886 5885 5885 5884 5884 5883 5883 5882 5881 5880 5880 5879 5878 5876 5875
5895 5897 5898 5899 5899 5899 5899 5899 5900 5899 5899 5898 5898 5898 5898 5897 5896 5895 5895 5895 5894 5894 5893 5893 5892 5892 5891 5890 5890 5889 5888 5887 5886 5885 5884 5883 5883 5882 5881 5881 5880 5879 5879 5878 5877 5875 5874 5873 5872
5892 5893 5895 5897 5897 5897 5896 5895 5895 5896 5896 5896 5896 5895 5895 5895 5894 5893 5893 5893 5892 5892 5891 5890 5890 5890 5889 5889 5888 5887 5886 5885 5884 5883 5882 5882 5881 5880 5879 5878 5877 5877 5876 5874 5873 5872 5871 5869 5868
5889 5891 5892 5893 5893 5894 5894 5893 5892 5891 5891 5892 5892 5892 5891 5891 5890 5890 5890 5890 5890 5889 5889 5888 5888 5887 5887 5886 5886 5885 5884 5883 5882 5881 5880 5879 5878 5877 5876 5875 5874 5873 5872 5871 5869 5868 5866 5865 5864
5887 5889 5890 5891 5890 5891 5890 5891 5889 5888 5887 5887 5888 5889 5887 5886 5887 5887 5887 5887 5886 5886 5886 5886 5885 5884 5884 5884 5883 5882 5881 5880 5879 5878 5877 5876 5875 5874 5873 5872 5870 5869 5868 5866 5865 5864 5862 5861 5859
5883 5885 5887 5889 5888 5888 5888 5890 5886 5886 5884 5884 5885 5885 5884 5883 5884 5883 5883 5884 5884 5884 5883 5883 5882 5882 5881 5881 5880 5879 5877 5876 5875 5874 5873 5872 5871 5870 5869 5867 5866 5865 5863 5861 5860 5858 5857 5856 5854